Whiteman AFB, MO

11:40 AM CST on November 15, 2019 (GMT -0600)
Whiteman Air Force Base

Weather History for KSZL - May, 2019

Change the Weather History Date:

Wednesday, May 1, 2019

  Actual Average Record
Temperature  
Mean Temperature 64 °F -  
Max Temperature 71 °F 69 °F 83 °F (2013)
Min Temperature 58 °F 50 °F 39 °F (1997)
Degree Days  
Heating Degree Days 1    
Growing Degree Days 14 (Base 50)    
Moisture  
Dew Point 62 °F    
Average Humidity 97    
Maximum Humidity 100    
Minimum Humidity 78    
Precipitation  
Precipitation 0.01 in - - ()
Sea Level Pressure  
Sea Level Pressure 29.89 in    
Wind  
Wind Speed 5 mph (NW)    
Max Wind Speed 9 mph    
Max Gust Speed -    
Visibility 9 miles    
Events Rain , Thunderstorm    
Averages and records for this station are not official NWS values.
T = Trace of Precipitation, MM = Missing Value Source: NWS Daily Summary

Daily Weather History Graph

Daily Weather History Graph

Search for Another Location

Airport or City:

Astronomy

May. 01, 2019 Rise Set
Actual Time 6:16 AM CDT 8:06 PM CDT
Civil Twilight 5:48 AM CDT 8:35 PM CDT
Nautical Twilight 5:13 AM CDT 9:09 PM CDT
Astronomical Twilight 4:36 AM CDT 9:47 PM CDT
Moon 4:59 AM CDT (5/1) 4:58 PM CDT (5/1)
Length of Visible Light 14h 46m
Length of Day
13h 49m
Waning Crescent, 10% of the Moon is Illuminated
May 1
Waning Crescent
May 4
New
May 11
First Quarter
May 18
Full
May 26
Last Quarter

Hourly Weather History & Observations

Time (CDT) Temp. Dew Point Humidity Pressure Visibility Wind Dir Wind Speed Gust Speed Precip Events Conditions
12:58 AM 58.8 °F 58.8 °F 100% 29.78 in 10.0 mi SSW 8.1 mph - N/A   Overcast
1:58 AM 58.8 °F 58.8 °F 100% 29.79 in 10.0 mi SSW 9.2 mph - N/A   Overcast
2:47 AM 59.0 °F 59.0 °F 100% 29.81 in 10.0 mi NW 5.8 mph - N/A   Overcast
2:56 AM 58.6 °F 58.6 °F 100% 29.79 in 10.0 mi NNW 6.9 mph - N/A   Overcast
3:58 AM 58.1 °F 58.1 °F 100% 29.83 in 10.0 mi WNW 5.8 mph - N/A   Overcast
4:34 AM 59.0 °F 59.0 °F 100% 29.83 in 4.0 mi Calm Calm - N/A   Light Drizzle
4:58 AM 58.3 °F 58.3 °F 100% 29.84 in 2.0 mi Calm Calm - 0.00 in   Light Drizzle
5:57 AM 58.3 °F 58.3 °F 100% 29.86 in 4.0 mi Calm Calm - 0.00 in   Light Drizzle
6:56 AM 58.5 °F 58.5 °F 100% 29.90 in 10.0 mi SSW 4.6 mph - N/A   Overcast
8:00 AM 59.2 °F 59.2 °F 100% 29.91 in 10.0 mi Calm Calm - N/A   Overcast
8:59 AM 59.7 °F 59.7 °F 100% 29.91 in 10.0 mi Calm Calm - N/A   Overcast
9:55 AM 60.8 °F 60.8 °F 100% 29.91 in 10.0 mi South 3.5 mph - N/A   Overcast
10:55 AM - - N/A% 29.93 in 10.0 mi South 5.8 mph - N/A   Overcast
11:55 AM 64.4 °F 64.4 °F 100% 29.93 in 10.0 mi South 3.5 mph - N/A   Overcast
12:58 PM 66.7 °F 65.8 °F 97% 29.92 in 10.0 mi SSE 4.6 mph - N/A   Mostly Cloudy
1:57 PM 67.1 °F 65.7 °F 95% 29.93 in 10.0 mi SSW 8.1 mph - N/A   Mostly Cloudy
2:56 PM 69.4 °F 65.1 °F 86% 29.93 in 10.0 mi SSW 5.8 mph - N/A   Overcast
3:55 PM 69.8 °F 64.4 °F 83% 29.92 in 10.0 mi NW 4.6 mph - N/A   Mostly Cloudy
4:57 PM 70.9 °F 63.7 °F 78% 29.91 in 10.0 mi Calm Calm - N/A   Mostly Cloudy
5:58 PM 68.9 °F 67.6 °F 96% 29.91 in 10.0 mi NNE 3.5 mph - N/A   Overcast
7:04 PM 68.7 °F 67.3 °F 95% 29.93 in 10.0 mi NNE 3.5 mph - N/A   Overcast
7:56 PM 66.0 °F 66.0 °F 100% 29.94 in 10.0 mi North 5.8 mph - N/A   Mostly Cloudy
8:56 PM 64.2 °F 64.2 °F 100% 29.94 in 10.0 mi NNE 4.6 mph - 0.00 in   Overcast
9:59 PM 64.0 °F 64.0 °F 100% 29.95 in 8.0 mi NNE 5.8 mph - 0.01 in Rain Light Rain Showers
10:56 PM 61.7 °F 61.7 °F 100% 29.94 in 10.0 mi NNE 3.5 mph - 0.00 in   Mostly Cloudy
11:44 PM 62.6 °F 62.6 °F 100% 29.91 in 6.0 mi North 5.8 mph - N/A Rain Light Rain Showers
11:56 PM 62.1 °F 62.1 °F 100% 29.91 in 6.0 mi NNW 8.1 mph - 0.00 in Rain , Thunderstorm Light Rain Showers